TIANLIAN 1-05

Last updated on Wed Nov 05 2025 00:02:50 GMT+0000 (Coordinated Universal Time)

1 49011U 21063A 25308.61051126 .00000122 00000+0 00000+0 0 9990 2 49011 1.0111 82.1551 0005916 163.1344 35.4310 1.00274202 15826
UTC large
Height (km)
Speed (km/s)
/
Latitude / Longitude
Inclination (degrees)
Orbital Period (minutes)
Azimuth
Elevation
Range (km)
Doppler Factor

Next 0 passes for location: London (51.5072 / 0.1276)

Sorry there are no passes over London.